This demonstration page uses our WeatherBlox Daily Observations layout. Learn more.

Left ArrowRight Arrow

39.51506, -84.39828

Hourly Observations for June 20, 2019

Temp ( °F °C ) Dew Point ( °F °C ) Humidity (%) Winds ( mph kmh ) Pressure ( in mb ) Visibility ( mi km ) Precip ( " mm )
12:15 am 00:15 Cloudy with Light Rain 69 20.4 68 19.9 97 97 Calm 29.64 1004 7 11 0.00 0.00
12:35 am 00:35 Partly Cloudy with Light Rain 69 20.4 68 20 98 98 Calm 29.64 1004 5 8 0.01 0.25
12:55 am 00:55 Cloudy with Light Rain 69 20.5 68 20.1 98 98 Calm 29.64 1004 5 8 0.01 0.25
1:15 am 01:15 Cloudy with Light Rain 69 20.6 68 20.2 98 98 Calm 29.63 1003 5 8 0.00 0.00
1:35 am 01:35 Cloudy with Mist and Fog 69 20.7 69 20.3 98 98 SSW 6 9 29.63 1003 5 8 0.00 0.00
1:55 am 01:55 Cloudy with Mist and Fog 69 20.8 69 20.3 97 97 SSW 6 9 29.62 1003 5 8 0.00 0.00
2:15 am 02:15 Cloudy with Mist and Fog 69 20.7 68 20.2 97 97 SW 6 9 29.61 1003 4 6 0.00 0.00
2:35 am 02:35 Cloudy with Mist and Fog 69 20.7 69 20.3 98 98 SW 8 13 29.61 1003 5 8 0.00 0.00
2:55 am 02:55 Cloudy with Mist and Fog 69 20.6 68 20.2 98 98 SW 6 9 29.60 1002 5 8 0.00 0.00
3:15 am 03:15 Cloudy with Mist and Fog 69 20.6 68 20.2 98 98 SSW 5 7 29.59 1002 5 8 0.00 0.00
3:35 am 03:35 Cloudy with Mist and Fog 69 20.5 68 20.1 98 98 SSW 3 6 29.58 1002 5 8 0.00 0.00
3:55 am 03:55 Cloudy with Mist and Fog 69 20.6 68 20.2 98 98 SSW 6 9 29.59 1002 5 8 0.00 0.00
4:15 am 04:15 Cloudy with Mist and Fog 69 20.6 68 20.2 98 98 SSW 6 9 29.59 1002 5 8 0.00 0.00
4:35 am 04:35 Cloudy with Light Rain 69 20.5 68 20 97 97 SSW 7 11 29.58 1002 5 8 0.00 0.00
4:55 am 04:55 Cloudy with Mist and Fog 69 20.6 68 20.1 97 97 SW 7 11 29.58 1002 5 8 0.00 0.00
5:15 am 05:15 Cloudy with Mist and Fog 69 20.6 68 20.1 97 97 SW 7 11 29.58 1002 5 8 0.00 0.00
5:35 am 05:35 Cloudy with Mist and Fog 69 20.7 68 20.1 96 96 SW 12 19 29.58 1002 5 8 0.00 0.00
5:55 am 05:55 Cloudy with Mist and Fog 69 20.6 68 20 96 96 WSW 9 15 29.58 1002 5 8 0.00 0.00
6:15 am 06:15 Cloudy with Mist and Fog 69 20.7 68 20.2 97 97 SW 7 11 29.59 1002 4 6 0.00 0.00
6:35 am 06:35 Cloudy with Mist and Fog 69 20.7 68 20.1 96 96 SW 9 15 29.59 1002 4 6 0.00 0.00
6:55 am 06:55 Cloudy with Mist and Fog 69 20.6 68 19.9 96 96 SW 10 17 29.60 1002 5 8 0.00 0.00
7:15 am 07:15 Cloudy 69 20.7 68 19.9 95 95 SW 10 17 29.60 1002 7 11 0.00 0.00
7:35 am 07:35 Cloudy 69 20.7 67 19.7 94 94 SW 8 13 29.60 1002 10 16 0.00 0.00
7:55 am 07:55 Cloudy 69 20.7 68 19.8 95 95 SSW 9 15 29.60 1002 10 16 0.00 0.00
8:15 am 08:15 Cloudy 70 20.9 68 19.9 94 94 SW 8 13 29.60 1002 10 16 0.00 0.00
8:35 am 08:35 Cloudy 70 20.9 68 19.9 94 94 SW 9 15 29.60 1002 10 16 0.00 0.00
8:55 am 08:55 Cloudy 70 21.1 68 19.9 93 93 SW 9 15 29.61 1003 10 16 0.00 0.00
9:15 am 09:15 Cloudy 70 21 67 19.6 92 92 WSW 13 20 29.61 1003 10 16 0.00 0.00
9:35 am 09:35 Cloudy 70 20.9 67 19.5 92 92 WSW 12 19 29.61 1003 10 16 0.00 0.00
9:55 am 09:55 Cloudy 70 20.9 67 19.4 91 91 SW 10 17 29.60 1002 10 16 0.00 0.00
10:15 am 10:15 Cloudy 70 21.2 67 19.5 90 90 WSW 10 17 29.61 1003 10 16 0.00 0.00
10:35 am 10:35 Cloudy 70 21.2 67 19.5 90 90 SW 13 20 29.61 1003 10 16 0.00 0.00
10:55 am 10:55 Cloudy 71 21.4 67 19.6 90 90 SW 13 20 29.61 1003 7 11 0.00 0.00
11:15 am 11:15 Cloudy 72 22.1 68 19.9 87 87 SW 14 22 29.60 1002 10 16 0.00 0.00
11:35 am 11:35 Cloudy 72 22.4 68 20 86 86 SW 13 20 29.60 1002 10 16 0.00 0.00
11:55 am 11:55 Mostly Cloudy 73 22.7 67 19.7 83 83 WSW 18 30 29.59 1002 10 16 0.00 0.00
12:15 pm 12:15 Mostly Cloudy 73 22.9 68 19.8 83 83 WSW 16 26 29.59 1002 10 16 0.00 0.00
12:35 pm 12:35 Cloudy 74 23.4 67 19.6 79 79 SW 20 31 29.59 1002 10 16 0.00 0.00
12:55 pm 12:55 Cloudy 74 23.4 67 19.5 79 79 SW 18 30 29.59 1002 10 16 0.00 0.00
1:15 pm 13:15 Cloudy 74 23.2 67 19.5 80 80 SW 18 30 29.59 1002 10 16 0.00 0.00
1:35 pm 13:35 Cloudy 74 23.4 67 19.4 78 78 WSW 21 33 29.59 1002 10 16 0.00 0.00
1:55 pm 13:55 Cloudy with Light Rain 73 22.7 65 18.2 76 76 W 21 33 29.59 1002 10 16 0.00 0.00
2:15 pm 14:15 Cloudy 73 22.6 65 18.3 77 77 W 17 28 29.60 1002 10 16 0.00 0.00
2:35 pm 14:35 Cloudy with Light Rain 72 22 65 18.3 80 80 W 21 33 29.61 1003 10 16 0.00 0.00
2:55 pm 14:55 Cloudy with Rain 67 19.4 64 17.9 91 91 WNW 20 31 29.64 1004 3 5 0.00 0.00
3:15 pm 15:15 Cloudy with Mist and Fog 67 19.6 64 17.5 88 88 W 23 37 29.66 1004 7 11 0.00 0.00
3:35 pm 15:35 Cloudy 67 19.5 63 17.4 88 88 W 15 24 29.66 1004 10 16 0.00 0.00
3:55 pm 15:55 Cloudy 69 20.3 64 17.5 84 84 W 12 19 29.65 1004 10 16 0.00 0.00
4:15 pm 16:15 Cloudy 68 19.9 63 17 83 83 W 20 31 29.66 1004 10 16 0.00 0.00
4:35 pm 16:35 Cloudy 68 19.9 63 17.1 84 84 W 14 22 29.67 1005 10 16 0.00 0.00
4:55 pm 16:55 Cloudy 67 19.7 63 17.4 87 87 WNW 13 20 29.68 1005 10 16 0.00 0.00
5:15 pm 17:15 Cloudy 67 19.6 63 17.4 87 87 WNW 14 22 29.69 1005 7 11 0.00 0.00
5:35 pm 17:35 Cloudy 68 19.8 64 17.5 87 87 WNW 14 22 29.70 1006 10 16 0.00 0.00
5:55 pm 17:55 Cloudy 67 19.4 64 17.6 89 89 WNW 14 22 29.70 1006 10 16 0.00 0.00
6:15 pm 18:15 Cloudy 68 19.9 63 17.1 84 84 WNW 17 28 29.71 1006 10 16 0.00 0.00
6:35 pm 18:35 Cloudy 69 20.3 63 17.2 82 82 NW 14 22 29.71 1006 10 16 0.00 0.00
6:55 pm 18:55 Cloudy 69 20.3 63 17.2 82 82 NW 10 17 29.71 1006 10 16 0.00 0.00
7:15 pm 19:15 Cloudy 68 20.1 63 17.1 83 83 NW 8 13 29.72 1007 10 16 0.00 0.00
7:35 pm 19:35 Cloudy 68 20.2 63 17.1 82 82 WNW 8 13 29.73 1007 10 16 0.00 0.00
7:55 pm 19:55 Cloudy 69 20.3 63 17.1 82 82 WNW 9 15 29.74 1007 10 16 0.00 0.00
8:15 pm 20:15 Cloudy 69 20.3 63 17.1 82 82 W 7 11 29.74 1007 10 16 0.00 0.00
8:35 pm 20:35 Cloudy 69 20.4 63 17.3 82 82 W 7 11 29.75 1008 10 16 0.00 0.00
8:55 pm 20:55 Partly Cloudy 68 20.1 63 17.2 83 83 WNW 10 17 29.75 1008 10 16 0.00 0.00
9:15 pm 21:15 Cloudy 68 20.1 63 17.2 83 83 WNW 8 13 29.76 1008 10 16 0.00 0.00
9:35 pm 21:35 Cloudy 68 20.2 63 17 82 82 NW 10 17 29.77 1008 10 16 0.00 0.00
9:55 pm 21:55 Cloudy with Rain 66 19 63 17.4 91 91 N 9 15 29.80 1009 7 11 0.01 0.25
10:15 pm 22:15 Cloudy with Heavy Rain 65 18.5 63 17 91 91 NNW 9 15 29.82 1010 5 8 0.05 1.27
10:35 pm 22:35 Cloudy with Light Rain 65 18.3 62 16.8 91 91 NNW 9 15 29.83 1010 10 16 0.07 1.78
10:55 pm 22:55 Cloudy with Light Rain 65 18.4 62 16.8 90 90 NNW 6 9 29.83 1010 10 16 0.07 1.78
11:15 pm 23:15 Cloudy 65 18.3 63 17 92 92 NNW 7 11 29.84 1010 10 16 0.00 0.00
11:35 pm 23:35 Cloudy with Light Rain 65 18.3 63 17 92 92 NNW 7 11 29.85 1011 10 16 0.00 0.00
11:55 pm 23:55 Cloudy 65 18.1 63 17 93 93 NW 6 9 29.86 1011 10 16 0.01 0.25

Powered by AerisWeather